Huntsville, AL

6:02 AM CST on January 24, 2018 (GMT -0600)
Huntsville International

Weather History for KHSV - December, 2012

Change the Weather History Date:

Thursday, December 6, 2012

  Actual Average Record
Temperature  
Mean Temperature 60 °F 46 °F  
Max Temperature 70 °F 56 °F 76 °F (1998)
Min Temperature 50 °F 36 °F 12 °F (1937)
Degree Days  
Heating Degree Days 5 19  
Month to date heating degree days 29 111  
Since 1 July heating degree days 667 638  
Cooling Degree Days 0 0  
Month to date cooling degree days 0 0  
Year to date cooling degree days 2094 1949  
Growing Degree Days 12 (Base 50)    
Moisture  
Dew Point 49 °F    
Average Humidity 72    
Maximum Humidity 89    
Minimum Humidity 55    
Precipitation  
Precipitation 0.00 in 0.20 in 3.48 in (1971)
Month to date precipitation 0.03 1.17  
Year to date precipitation 45.49 49.74  
Snow  
Snow 0.00 in - - ()
Month to date snowfall 0.0  
Since 1 July snowfall 0.0  
Snow Depth 0.00 in    
Sea Level Pressure  
Sea Level Pressure 30.06 in    
Wind  
Wind Speed 8 mph (SE)    
Max Wind Speed 14 mph    
Max Gust Speed 18 mph    
Visibility 10 miles    
Events      
T = Trace of Precipitation, MM = Missing Value Source: NWS Daily Summary

Daily Weather History Graph

Daily Weather History Graph

Search for Another Location

Airport or City:

Trip Planner

Search our weather history database for the weather conditions in past years. The results will help you decide how hot, cold, wet, or windy it might be!

Date:

Astronomy

Dec. 06, 2012 Rise Set
Actual Time 6:40 AM CST 4:36 PM CST
Civil Twilight 6:12 AM CST 5:03 PM CST
Nautical Twilight 5:41 AM CST 5:35 PM CST
Astronomical Twilight 5:10 AM CST 6:05 PM CST
Moon No Moon Rise 11:47 AM CST (12/6)
Length of Visible Light 10h 51m
Length of Day
9h 55m
Waning Gibbous, 49% of the Moon is Illuminated
Dec 6
Waning Gibbous
Dec 13
New
Dec 19
First Quarter
Dec 28
Full
Jan 4
Last Quarter

Hourly Weather History & Observations

Time (CST) Temp. Dew Point Humidity Pressure Visibility Wind Dir Wind Speed Gust Speed Precip Events Conditions
12:53 AM 51.1 °F 46.9 °F 86% 30.10 in 10.0 mi Calm Calm - N/A   Overcast
1:53 AM 52.0 °F 48.0 °F 86% 30.10 in 10.0 mi SSE 4.6 mph - N/A   Overcast
2:53 AM 52.0 °F 46.0 °F 80% 30.09 in 10.0 mi Calm Calm - N/A   Overcast
3:53 AM 54.0 °F 43.0 °F 66% 30.09 in 10.0 mi East 4.6 mph - N/A   Overcast
4:53 AM 54.0 °F 43.0 °F 66% 30.09 in 10.0 mi East 3.5 mph - N/A   Overcast
5:53 AM 54.0 °F 43.0 °F 66% 30.10 in 10.0 mi ESE 5.8 mph - N/A   Mostly Cloudy
6:53 AM 54.0 °F 45.0 °F 72% 30.10 in 10.0 mi ESE 5.8 mph - N/A   Mostly Cloudy
7:53 AM 57.9 °F 48.9 °F 72% 30.10 in 10.0 mi SE 10.4 mph - N/A   Mostly Cloudy
8:53 AM 61.0 °F 52.0 °F 72% 30.10 in 10.0 mi SE 11.5 mph - N/A   Mostly Cloudy
9:53 AM 64.0 °F 53.1 °F 67% 30.10 in 10.0 mi SE 11.5 mph - N/A   Mostly Cloudy
10:53 AM 66.0 °F 54.0 °F 65% 30.09 in 10.0 mi SE 10.4 mph - N/A   Mostly Cloudy
11:53 AM 66.9 °F 54.0 °F 63% 30.06 in 10.0 mi SSE 9.2 mph - N/A   Mostly Cloudy
12:53 PM 69.1 °F 54.0 °F 58% 30.04 in 10.0 mi SSE 10.4 mph - N/A   Mostly Cloudy
1:53 PM 69.1 °F 53.1 °F 57% 30.01 in 10.0 mi South 8.1 mph - N/A   Mostly Cloudy
2:53 PM 70.0 °F 53.1 °F 55% 30.01 in 10.0 mi SE 10.4 mph - N/A   Mostly Cloudy
3:53 PM 68.0 °F 52.0 °F 56% 30.01 in 10.0 mi SE 9.2 mph - N/A   Mostly Cloudy
4:53 PM 63.0 °F 52.0 °F 67% 30.01 in 10.0 mi ESE 6.9 mph - N/A   Mostly Cloudy
5:53 PM 63.0 °F 52.0 °F 67% 30.02 in 10.0 mi ESE 8.1 mph - N/A   Overcast
6:53 PM 60.8 °F 51.8 °F 72% 30.03 in 10.0 mi SE 9.2 mph - N/A   Partly Cloudy
7:53 PM 60.1 °F 46.9 °F 62% 30.03 in 10.0 mi SE 11.5 mph - N/A   Partly Cloudy
8:53 PM 57.9 °F 45.0 °F 62% 30.03 in 10.0 mi ESE 12.7 mph - N/A   Clear
9:53 PM 57.0 °F 45.0 °F 64% 30.03 in 10.0 mi ESE 11.5 mph - N/A   Clear
10:53 PM 55.9 °F 44.1 °F 64% 30.03 in 10.0 mi ESE 10.4 mph - N/A   Scattered Clouds
11:53 PM 54.0 °F 43.0 °F 66% 30.03 in 10.0 mi SE 8.1 mph - N/A   Scattered Clouds